Terug naar catalogus

FREGAT DEB

LostUNKNOWN
NORAD 46241·DEBRIS·🇷🇺 Russia

Gelanceerd Jul 18, 2011 vanaf Baikonur Cosmodrome

Loading…

Volgende Passages (komende 24 uur)

TLE

VerouderdSource: Space-Track

Epoch: Mar 19, 2022, 14:15 UTC

1 46241U 11037KB  22078.59433097  .00861012  00000-0  24508+0 0  9994
2 46241  51.1414 222.9906 1536248 183.4826 175.4179 11.90731498 64418

Volg FREGAT DEB in realtime met AllMySat

Download on the App Store